Flag for Germany Weather past 2 weeks in Bietigheim-Bissingen, Baden-Württemberg, Germany

Now
79 °F

Overcast.


Feels Like: 79 °F
Forecast: 60 / 87 °F
Wind: 9 mph from West

Location: Stuttgart-Echterdingen

Current Time: Aug 4, 2015 at 2:47:52 PM

Latest Report: Aug 4, 2015 at 2:00 PM


Visibility: 37 mi

Pressure: 29.96 "Hg

Humidity: 46%

Dew point: 56 °F

Location of Bietigheim-BissingenLocation

Historic Weather in Bietigheim-Bissingen — Graph

°F

Bietigheim-Bissingen temperature yesterday

Maximum temperature yesterday: 88 °F (at 5:00 PM)
Minimum temperature yesterday: 58 °F (at 5:00 AM)
Average temperature yesterday: 74 °F

Past Weeks' High & Low Weather Summary

 TemperatureHumidityPressure
High94 °F (Jul 22, 3:00 PM)92% (Jul 23, 8:00 AM)30.12 "Hg (Jul 23, 8:00 AM)
Low49 °F (Jul 31, 7:00 AM)26% (Jul 22, 3:00 PM)29.65 "Hg (Jul 24, 8:00 PM)
Average69 °F59%29.92 "Hg
* Reported Jul 20 2:00 PM — Aug 4 2:00 PM, Bietigheim-Bissingen, Weather by CustomWeather, © 2015

Note: Actual official high and low records may vary slightly from our data, if they occured in-between our weather recording intervals... More about our weather records

Advertising

Bietigheim-Bissingen weather history for previous 24 hours

 ConditionsComfort  
Time TempWeatherWind HumidityBarometerVisibility
2:00 PM
Tue, Aug 4
79 °FOvercast.9 mph46%29.96 "Hg37 mi
1:00 PM81 °FOvercast.10 mph42%29.94 "Hg31 mi
12:00 PM84 °FOvercast.8 mph37%29.90 "Hg31 mi
10:00 AM78 °FPartly sunny.1 mph49%29.89 "Hg37 mi
9:00 AM74 °FPartly sunny.1 mph55%29.90 "Hg37 mi
8:00 AM68 °FPartly sunny.1 mph71%29.91 "Hg37 mi
7:00 AM63 °FScattered clouds.1 mph81%29.93 "Hg37 mi
6:00 AM62 °FScattered clouds.1 mph79%29.93 "Hg37 mi
4:00 AM64 °FPassing clouds.1 mph75%29.95 "Hg31 mi
3:00 AM65 °FPassing clouds.No wind74%29.96 "Hg37 mi
2:00 AM67 °FClear.1 mph71%29.96 "Hg37 mi
1:00 AM69 °FClear.1 mph66%29.95 "Hg37 mi
10:00 PM
Mon, Aug 3
77 °FPassing clouds.1 mph47%29.94 "Hg43 mi
9:00 PM81 °FPassing clouds.2 mph41%29.92 "Hg43 mi
8:00 PM86 °FPassing clouds.2 mph34%29.91 "Hg43 mi
7:00 PM88 °FScattered clouds.2 mph30%29.91 "Hg43 mi
6:00 PM88 °FPassing clouds.2 mph30%29.92 "Hg43 mi
5:00 PM88 °FPassing clouds.2 mph29%29.93 "Hg43 mi
4:00 PM87 °FPassing clouds.2 mph30%29.95 "Hg43 mi
3:00 PM86 °FPassing clouds.2 mph30%29.97 "Hg43 mi
2:00 PM85 °FPassing clouds.2 mph29%29.98 "Hg43 mi
Weather by CustomWeather, © 2015

See weather overviewHow to use our weather pages